Weather History for KADG - November, 2013

Change the Weather History Date:

Saturday, November 9, 2013

  Actual Average Record
Temperature  
Mean Temperature 47 °F -  
Max Temperature 57 °F 52 °F 73 °F (1999)
Min Temperature 37 °F 33 °F 12 °F (1991)
Degree Days  
Heating Degree Days 18    
Moisture  
Dew Point 34 °F    
Average Humidity 60    
Maximum Humidity 79    
Minimum Humidity 49    
Precipitation  
Precipitation 0.00 in - - ()
Sea Level Pressure  
Sea Level Pressure 29.97 in    
Wind  
Wind Speed 12 mph (WSW)    
Max Wind Speed 21 mph    
Max Gust Speed 36 mph    
Visibility 10 miles    
Events      
Averages and records for this station are not official NWS values.
T = Trace of Precipitation, MM = Missing Value Source: NWS Daily Summary

Daily Weather History Graph

Daily Weather History Graph

Search for Another Location

Airport or City:

Trip Planner

Search our weather history database for the weather conditions in past years. The results will help you decide how hot, cold, wet, or windy it might be!

Date:

Astronomy

Nov. 09, 2013 Rise Set
Actual Time 7:18 AM EST 5:20 PM EST
Civil Twilight 6:49 AM EST 5:50 PM EST
Nautical Twilight 6:15 AM EST 6:23 PM EST
Astronomical Twilight 5:43 AM EST 6:56 PM EST
Moon 12:54 PM EST (11/9) 11:51 PM EST (11/9)
Length of Visible Light 11h 01m
Length of Day
10h 02m
Waxing Crescent, 44% of the Moon is Illuminated
Nov 9
Waxing Crescent
Nov 10
First Quarter
Nov 17
Full
Nov 25
Last Quarter
Dec 2
New

Hourly Weather History & Observations

Time (EST) Temp. Windchill Dew Point Humidity Pressure Visibility Wind Dir Wind Speed Gust Speed Precip Events Conditions
12:53 AM 37.0 °F 31.6 °F 30.9 °F 79% 30.19 in 10.0 mi South 6.9 mph - N/A   Clear
1:53 AM 37.0 °F 31.0 °F 30.9 °F 79% 30.16 in 10.0 mi South 8.1 mph - N/A   Scattered Clouds
2:53 AM 39.0 °F 33.4 °F 30.9 °F 73% 30.13 in 10.0 mi SSW 8.1 mph - N/A   Partly Cloudy
3:53 AM 41.0 °F 33.5 °F 30.0 °F 65% 30.09 in 10.0 mi SSW 13.8 mph - N/A   Scattered Clouds
4:53 AM 41.0 °F 33.5 °F 30.0 °F 65% 30.06 in 10.0 mi SSW 13.8 mph - N/A   Mostly Cloudy
5:53 AM 42.1 °F 34.9 °F 30.0 °F 62% 30.04 in 10.0 mi SSW 13.8 mph 19.6 mph N/A   Mostly Cloudy
6:53 AM 41.0 °F 32.8 °F 28.9 °F 62% 30.01 in 10.0 mi SSW 16.1 mph - N/A   Clear
7:53 AM 41.0 °F 33.9 °F 30.0 °F 65% 30.01 in 10.0 mi SW 12.7 mph - N/A   Clear
8:53 AM 45.0 °F 37.4 °F 30.0 °F 56% 29.99 in 10.0 mi SW 18.4 mph 25.3 mph N/A   Clear
9:53 AM 46.9 °F - 30.9 °F 54% 29.95 in 10.0 mi SW 18.4 mph 26.5 mph N/A   Clear
10:53 AM 51.1 °F - 34.0 °F 52% 29.92 in 10.0 mi West 15.0 mph 28.8 mph N/A   Clear
11:53 AM 53.1 °F - 35.1 °F 50% 29.89 in 10.0 mi West 17.3 mph 32.2 mph N/A   Clear
12:53 PM 55.9 °F - 37.9 °F 51% 29.86 in 10.0 mi West 15.0 mph 27.6 mph N/A   Partly Cloudy
1:53 PM 57.9 °F - 39.0 °F 49% 29.86 in 10.0 mi West 17.3 mph 28.8 mph N/A   Mostly Cloudy
2:53 PM 55.9 °F - 39.0 °F 53% 29.86 in 10.0 mi West 19.6 mph 27.6 mph N/A   Overcast
3:53 PM 55.9 °F - 39.0 °F 53% 29.87 in 10.0 mi West 18.4 mph 24.2 mph N/A   Overcast
4:53 PM 55.9 °F - 37.9 °F 51% 29.89 in 10.0 mi West 17.3 mph 24.2 mph N/A   Overcast
5:53 PM 54.0 °F - 39.0 °F 57% 29.91 in 10.0 mi WNW 9.2 mph - N/A   Overcast
6:53 PM 53.1 °F - 39.0 °F 59% 29.92 in 10.0 mi West 8.1 mph - N/A   Overcast
7:53 PM 54.0 °F - 37.0 °F 53% 29.93 in 10.0 mi West 12.7 mph 18.4 mph N/A   Overcast
8:53 PM 53.1 °F - 37.0 °F 55% 29.94 in 10.0 mi WNW 13.8 mph 23.0 mph N/A   Mostly Cloudy
9:53 PM 50.0 °F - 37.9 °F 63% 29.96 in 10.0 mi WNW 12.7 mph 25.3 mph N/A   Mostly Cloudy
10:53 PM 48.9 °F - 37.9 °F 66% 29.95 in 10.0 mi WNW 12.7 mph 20.7 mph N/A   Partly Cloudy
11:53 PM 48.0 °F - 35.1 °F 61% 29.96 in 10.0 mi WNW 20.7 mph 35.7 mph N/A   Clear